DLH499 MMMX-EDDF

Flight info

Callsign DLH499
Flight time N/A
Altitude 35000
Route NOXOS2B NOXOS UT106 COFRE UM580 IRDOV M580 MINOW DCT LAL DCT HOBEE M202 LENDS DCT UKOKA/M084F350 M202 ITCHE/M084F370 M202 JEBBY/N0488F370 DCT SUPRY/M084F370 DCT 46N050W 4830N04000W 50N030W 51N020W DCT DINIM DCT ELSOX DCT LESLU/N0485F370 DCT OXLOW DCT KONAN UL607 SPI T180 NIVNU T847 IMCOM IMCOM1A
Aircraft B748/H-SDE3FGHIM1M2RWXY/LB1

Departure

Time 2026-05-04 01:32
Airport Mexico City Benito Juárez International Airport (MMMX)

Arrival

Time N/A
Airport Frankfurt Main Airport (EDDF)
Time Latitude Longitude Altitude Speed Heading
2026-05-04 00:03 19.43630 -99.07910 7330 ft 0 kts 291°
2026-05-04 00:51 19.43629 -99.07908 7329 ft 1 kts 291°
2026-05-04 00:51 19.43624 -99.07893 7329 ft 2 kts 296°
2026-05-04 00:52 19.43616 -99.07877 7329 ft 2 kts 303°
2026-05-04 00:52 19.43607 -99.07864 7329 ft 1 kts 312°
2026-05-04 00:52 19.43597 -99.07853 7329 ft 1 kts 326°
2026-05-04 00:52 19.43588 -99.07846 7329 ft 0 kts 342°
2026-05-04 00:53 19.43577 -99.07842 7329 ft 2 kts 11°
2026-05-04 00:53 19.43571 -99.07842 7329 ft 1 kts 43°
2026-05-04 00:53 19.43564 -99.07850 7329 ft 1 kts 59°
2026-05-04 00:53 19.43557 -99.07864 7329 ft 1 kts 59°
2026-05-04 00:54 19.43553 -99.07870 7329 ft 0 kts 59°
2026-05-04 01:01 19.43555 -99.07866 7329 ft 3 kts 61°
2026-05-04 01:01 19.43558 -99.07838 7329 ft 4 kts 86°
2026-05-04 01:02 19.43547 -99.07796 7329 ft 11 kts 115°
2026-05-04 01:02 19.43506 -99.07708 7329 ft 13 kts 117°
2026-05-04 01:02 19.43463 -99.07626 7329 ft 13 kts 120°
2026-05-04 01:02 19.43424 -99.07553 7329 ft 1 kts 120°
2026-05-04 01:04 19.43423 -99.07552 7329 ft 2 kts 120°
2026-05-04 01:04 19.43421 -99.07548 7329 ft 0 kts 120°
2026-05-04 01:05 19.43412 -99.07531 7329 ft 9 kts 120°
2026-05-04 01:05 19.43358 -99.07432 7329 ft 19 kts 120°
2026-05-04 01:05 19.43302 -99.07313 7329 ft 16 kts 122°
2026-05-04 01:06 19.43215 -99.07296 7329 ft 16 kts 245°
2026-05-04 01:06 19.43166 -99.07400 7329 ft 15 kts 239°
2026-05-04 01:06 19.43113 -99.07493 7329 ft 14 kts 239°
2026-05-04 01:06 19.43063 -99.07581 7329 ft 13 kts 239°
2026-05-04 01:07 19.43015 -99.07664 7329 ft 13 kts 239°
2026-05-04 01:07 19.42968 -99.07741 7329 ft 12 kts 227°
2026-05-04 01:07 19.42909 -99.07804 7329 ft 12 kts 223°
2026-05-04 01:07 19.42842 -99.07849 7329 ft 11 kts 207°
2026-05-04 01:08 19.42774 -99.07889 7329 ft 11 kts 190°
2026-05-04 01:08 19.42702 -99.07883 7329 ft 10 kts 207°
2026-05-04 01:08 19.42654 -99.07937 7329 ft 10 kts 237°
2026-05-04 01:08 19.42616 -99.07998 7329 ft 10 kts 237°
2026-05-04 01:09 19.42574 -99.08073 7329 ft 12 kts 240°
2026-05-04 01:09 19.42527 -99.08159 7329 ft 15 kts 240°
2026-05-04 01:09 19.42481 -99.08252 7329 ft 14 kts 262°
2026-05-04 01:09 19.42539 -99.08322 7329 ft 13 kts 311°
2026-05-04 01:10 19.42581 -99.08408 7329 ft 13 kts 295°
2026-05-04 01:10 19.42616 -99.08488 7329 ft 2 kts 295°
2026-05-04 01:11 19.42619 -99.08494 7329 ft 5 kts 295°
2026-05-04 01:12 19.42651 -99.08565 7329 ft 13 kts 295°
2026-05-04 01:12 19.42670 -99.08655 7329 ft 12 kts 275°
2026-05-04 01:12 19.42678 -99.08747 7329 ft 12 kts 275°
2026-05-04 01:12 19.42685 -99.08832 7329 ft 12 kts 273°
2026-05-04 01:13 19.42690 -99.08913 7329 ft 6 kts 275°
2026-05-04 01:13 19.42691 -99.08915 7329 ft 0 kts 275°
2026-05-04 01:16 19.42692 -99.08936 7329 ft 9 kts 275°
2026-05-04 01:17 19.42702 -99.09032 7329 ft 14 kts 284°
2026-05-04 01:17 19.42751 -99.09081 7329 ft 7 kts 358°
2026-05-04 01:17 19.42800 -99.09076 7329 ft 7 kts 11°
2026-05-04 01:17 19.42861 -99.09047 7329 ft 16 kts 31°
2026-05-04 01:18 19.42951 -99.08970 7329 ft 16 kts 55°
2026-05-04 01:18 19.43001 -99.08866 7329 ft 15 kts 63°
2026-05-04 01:18 19.43055 -99.08772 7329 ft 14 kts 60°
2026-05-04 01:18 19.43110 -99.08670 7329 ft 18 kts 60°
2026-05-04 01:19 19.43179 -99.08549 7329 ft 24 kts 55°
2026-05-04 01:19 19.43259 -99.08403 7329 ft 22 kts 60°
2026-05-04 01:19 19.43338 -99.08265 7329 ft 21 kts 58°
2026-05-04 01:19 19.43413 -99.08131 7329 ft 21 kts 61°
2026-05-04 01:20 19.43480 -99.08002 7329 ft 20 kts 58°
2026-05-04 01:20 19.43546 -99.07882 7329 ft 18 kts 62°
2026-05-04 01:20 19.43546 -99.07786 7329 ft 0 kts 113°
2026-05-04 01:21 19.43527 -99.07748 7329 ft 13 kts 118°
2026-05-04 01:21 19.43460 -99.07621 7329 ft 23 kts 120°
2026-05-04 01:21 19.43423 -99.07552 7329 ft 0 kts 120°
2026-05-04 01:23 19.43420 -99.07546 7329 ft 5 kts 120°
2026-05-04 01:23 19.43382 -99.07476 7329 ft 16 kts 120°
2026-05-04 01:24 19.43329 -99.07367 7329 ft 17 kts 116°
2026-05-04 01:24 19.43256 -99.07277 7329 ft 9 kts 195°
2026-05-04 01:24 19.43219 -99.07315 7329 ft 12 kts 231°
2026-05-04 01:24 19.43147 -99.07434 7329 ft 26 kts 239°
2026-05-04 01:25 19.43031 -99.07639 7329 ft 38 kts 238°
2026-05-04 01:25 19.42877 -99.07918 7329 ft 44 kts 244°
2026-05-04 01:25 19.42780 -99.07966 7329 ft 11 kts 156°
2026-05-04 01:25 19.42754 -99.07958 7329 ft 0 kts 170°
2026-05-04 01:26 19.42747 -99.07952 7329 ft 2 kts 131°
2026-05-04 01:26 19.42744 -99.07932 7329 ft 5 kts 84°
2026-05-04 01:26 19.42711 -99.07886 7329 ft 11 kts 152°
2026-05-04 01:26 19.42654 -99.07932 7329 ft 12 kts 239°
2026-05-04 01:27 19.42608 -99.08013 7329 ft 15 kts 240°
2026-05-04 01:27 19.42534 -99.08151 7329 ft 26 kts 240°
2026-05-04 01:27 19.42492 -99.08278 7329 ft 12 kts 320°
2026-05-04 01:27 19.42566 -99.08380 7329 ft 21 kts 297°
2026-05-04 01:28 19.42620 -99.08498 7329 ft 1 kts 294°
2026-05-04 01:29 19.42620 -99.08499 7329 ft 2 kts 294°
2026-05-04 01:29 19.42640 -99.08545 7329 ft 9 kts 294°
2026-05-04 01:29 19.42665 -99.08589 7329 ft 0 kts 341°
2026-05-04 01:30 19.42666 -99.08590 7329 ft 0 kts 341°
2026-05-04 01:30 19.42685 -99.08588 7329 ft 4 kts 32°
2026-05-04 01:30 19.42723 -99.08550 7329 ft 6 kts 53°
2026-05-04 01:30 19.42724 -99.08547 7329 ft 0 kts 56°
2026-05-04 01:31 19.42747 -99.08512 7329 ft 12 kts 56°
2026-05-04 01:31 19.42861 -99.08310 7329 ft 60 kts 59°
2026-05-04 01:31 19.43186 -99.07738 7329 ft 120 kts 58°
2026-05-04 01:32 19.43701 -99.06818 7334 ft 172 kts 58°
2026-05-04 01:32 19.44338 -99.05642 7683 ft 186 kts 58°
2026-05-04 01:32 19.45005 -99.04456 8306 ft 190 kts 59°
2026-05-04 01:32 19.45685 -99.03243 8813 ft 192 kts 58°
2026-05-04 01:33 19.46389 -99.02082 9204 ft 190 kts 58°
2026-05-04 01:33 19.47138 -99.00855 9187 ft 202 kts 58°
2026-05-04 01:33 19.47891 -98.99576 9254 ft 208 kts 58°
2026-05-04 01:33 19.48693 -98.98254 9279 ft 217 kts 57°
2026-05-04 01:34 19.49595 -98.96944 9365 ft 222 kts 58°
2026-05-04 01:34 19.50419 -98.95558 9514 ft 221 kts 62°
2026-05-04 01:34 19.51187 -98.94148 9738 ft 222 kts 62°
2026-05-04 01:34 19.51958 -98.92734 9855 ft 230 kts 62°
2026-05-04 01:35 19.52783 -98.91216 10032 ft 235 kts 63°
2026-05-04 01:35 19.53480 -98.89620 10119 ft 246 kts 70°
2026-05-04 01:35 19.54024 -98.87868 10230 ft 256 kts 75°
2026-05-04 01:35 19.54493 -98.86022 10369 ft 266 kts 77°
2026-05-04 01:36 19.54955 -98.84070 10480 ft 278 kts 77°
2026-05-04 01:36 19.55458 -98.82043 10625 ft 289 kts 76°
2026-05-04 01:36 19.55995 -98.79964 10775 ft 299 kts 76°
2026-05-04 01:36 19.56555 -98.77820 11302 ft 297 kts 76°
2026-05-04 01:37 19.57111 -98.75701 11873 ft 298 kts 76°
2026-05-04 01:37 19.57664 -98.73594 12322 ft 303 kts 76°
2026-05-04 01:37 19.58156 -98.71368 12681 ft 311 kts 79°
2026-05-04 01:37 19.58563 -98.69082 12857 ft 326 kts 81°
2026-05-04 01:38 19.58956 -98.66649 12981 ft 343 kts 81°
2026-05-04 01:38 19.59385 -98.64080 13083 ft 360 kts 81°
2026-05-04 01:38 19.59840 -98.61422 13191 ft 376 kts 81°
2026-05-04 01:38 19.60321 -98.58639 13292 ft 392 kts 80°
2026-05-04 01:39 19.60827 -98.55723 13385 ft 407 kts 80°
2026-05-04 01:39 19.61334 -98.52730 13475 ft 421 kts 82°
2026-05-04 01:39 19.61611 -98.49624 13687 ft 429 kts 89°
2026-05-04 01:39 19.61575 -98.46436 13964 ft 436 kts 93°
2026-05-04 01:40 19.61433 -98.43181 14308 ft 441 kts 93°
2026-05-04 01:40 19.61297 -98.39919 14654 ft 444 kts 93°
2026-05-04 01:40 19.61199 -98.36679 15072 ft 447 kts 92°
2026-05-04 01:40 19.61123 -98.33351 15464 ft 450 kts 92°
2026-05-04 01:41 19.61044 -98.30017 15825 ft 454 kts 92°
2026-05-04 01:41 19.60955 -98.26666 16212 ft 457 kts 92°
2026-05-04 01:41 19.60860 -98.23289 16616 ft 459 kts 92°
2026-05-04 01:41 19.60761 -98.19860 17018 ft 462 kts 92°
2026-05-04 01:42 19.60666 -98.16605 17553 ft 461 kts 92°
2026-05-04 01:42 19.60566 -98.13204 17921 ft 464 kts 92°
2026-05-04 01:42 19.60466 -98.09810 18249 ft 468 kts 92°
2026-05-04 01:42 19.60362 -98.06304 18559 ft 473 kts 92°
2026-05-04 01:43 19.60368 -98.02782 18908 ft 476 kts 84°
2026-05-04 01:43 19.60976 -97.99379 19282 ft 478 kts 76°
2026-05-04 01:43 19.61928 -97.95957 19672 ft 480 kts 71°
2026-05-04 01:43 19.63049 -97.92645 20036 ft 482 kts 69°
2026-05-04 01:44 19.64304 -97.89284 20414 ft 484 kts 68°
2026-05-04 01:44 19.65557 -97.85976 20783 ft 486 kts 68°
2026-05-04 01:44 19.66784 -97.82677 21167 ft 488 kts 68°
2026-05-04 01:44 19.68018 -97.79321 21564 ft 490 kts 68°
2026-05-04 01:45 19.69256 -97.75934 21917 ft 493 kts 68°
2026-05-04 01:45 19.70488 -97.72552 22319 ft 494 kts 68°
2026-05-04 01:45 19.72980 -97.65714 23027 ft 500 kts 67°
2026-05-04 01:46 19.74247 -97.62293 23367 ft 503 kts 67°
2026-05-04 01:46 19.75522 -97.58804 23712 ft 506 kts 67°
2026-05-04 01:46 19.76801 -97.55281 24073 ft 509 kts 67°
2026-05-04 01:46 19.78067 -97.51780 24479 ft 509 kts 66°
2026-05-04 01:47 19.79329 -97.48288 25088 ft 507 kts 66°
2026-05-04 01:47 19.80594 -97.44788 25410 ft 511 kts 65°
2026-05-04 01:47 19.81879 -97.41230 25728 ft 514 kts 65°
2026-05-04 01:47 19.83138 -97.37745 26036 ft 517 kts 65°
2026-05-04 01:48 19.84435 -97.34149 26442 ft 518 kts 65°
2026-05-04 01:48 19.85714 -97.30608 26771 ft 519 kts 65°
2026-05-04 01:48 19.87026 -97.26967 27069 ft 522 kts 65°
2026-05-04 01:48 19.88299 -97.23429 27572 ft 520 kts 65°
2026-05-04 01:49 19.89601 -97.19806 27813 ft 523 kts 65°
2026-05-04 01:49 19.90910 -97.16162 28104 ft 525 kts 65°
2026-05-04 01:49 19.92213 -97.12528 28503 ft 525 kts 65°
2026-05-04 01:49 19.93507 -97.08918 28878 ft 525 kts 65°
2026-05-04 01:50 19.94795 -97.05320 29228 ft 526 kts 65°
2026-05-04 01:50 19.96110 -97.01656 29543 ft 527 kts 66°
2026-05-04 01:50 19.97246 -96.98515 29903 ft 529 kts 67°
2026-05-04 01:50 19.98523 -96.94982 30006 ft 536 kts 68°
2026-05-04 01:51 19.99857 -96.91276 30121 ft 543 kts 68°
2026-05-04 01:51 20.01215 -96.87491 30320 ft 547 kts 68°
2026-05-04 01:51 20.02575 -96.83695 30601 ft 550 kts 68°
2026-05-04 01:51 20.03934 -96.79898 30987 ft 549 kts 68°
2026-05-04 01:52 20.05278 -96.76138 31480 ft 547 kts 69°
2026-05-04 01:52 20.06627 -96.72358 31919 ft 546 kts 69°
2026-05-04 01:52 20.07980 -96.68567 32269 ft 546 kts 69°
2026-05-04 01:52 20.09319 -96.64809 32683 ft 545 kts 69°
2026-05-04 01:53 20.10652 -96.61065 33079 ft 543 kts 69°
2026-05-04 01:53 20.12009 -96.57252 33445 ft 542 kts 69°
2026-05-04 01:53 20.13323 -96.53558 33798 ft 541 kts 69°
2026-05-04 01:53 20.14665 -96.49780 34136 ft 540 kts 69°
2026-05-04 01:54 20.15989 -96.46050 34447 ft 539 kts 69°
2026-05-04 01:54 20.17311 -96.42326 34731 ft 538 kts 69°
2026-05-04 01:54 20.18626 -96.38617 34990 ft 537 kts 69°
2026-05-04 01:54 20.19961 -96.34849 35117 ft 537 kts 69°
2026-05-04 01:55 20.22602 -96.27433 35141 ft 537 kts 69°
2026-05-04 01:55 20.25212 -96.20038 35141 ft 537 kts 69°
2026-05-04 01:56 20.27842 -96.12563 35142 ft 537 kts 69°
2026-05-04 01:56 20.30456 -96.05126 35141 ft 537 kts 68°
2026-05-04 01:57 20.34100 -95.98256 35144 ft 535 kts 53°
2026-05-04 01:57 20.37830 -95.93012 35142 ft 533 kts 49°
2026-05-04 01:58 20.42521 -95.86859 35141 ft 533 kts 49°
2026-05-04 01:58 20.47143 -95.80705 35141 ft 533 kts 50°
2026-05-04 01:59 20.51779 -95.74484 35142 ft 533 kts 50°
2026-05-04 01:59 20.56365 -95.68346 35141 ft 533 kts 50°
2026-05-04 02:00 20.61749 -95.61119 35142 ft 533 kts 50°
2026-05-04 02:00 20.65581 -95.55960 35142 ft 533 kts 50°
2026-05-04 02:01 20.70183 -95.49757 35141 ft 533 kts 50°
2026-05-04 02:01 20.74802 -95.43523 35142 ft 533 kts 50°
2026-05-04 02:02 20.79404 -95.37303 35142 ft 533 kts 50°
2026-05-04 02:02 20.83976 -95.31118 35141 ft 533 kts 50°
2026-05-04 02:03 20.88585 -95.24893 35141 ft 533 kts 50°
2026-05-04 02:03 20.93179 -95.18671 35142 ft 533 kts 50°
2026-05-04 02:04 20.97758 -95.12446 35141 ft 533 kts 50°
2026-05-04 02:04 21.02321 -95.06236 35142 ft 533 kts 50°
2026-05-04 02:05 21.06920 -94.99921 35141 ft 533 kts 52°
2026-05-04 02:05 21.10940 -94.93443 35142 ft 535 kts 56°
2026-05-04 02:06 21.14882 -94.86730 35141 ft 535 kts 56°
2026-05-04 02:06 21.18888 -94.79976 35142 ft 535 kts 56°
2026-05-04 02:07 21.22866 -94.73291 35142 ft 535 kts 56°
2026-05-04 02:07 21.26875 -94.66579 35141 ft 535 kts 56°
2026-05-04 02:08 21.30888 -94.59878 35142 ft 535 kts 56°
2026-05-04 02:08 21.34906 -94.53139 35142 ft 535 kts 56°
2026-05-04 02:09 21.38898 -94.46429 35141 ft 535 kts 56°
2026-05-04 02:09 21.42896 -94.39698 35142 ft 535 kts 56°
2026-05-04 02:10 21.46880 -94.32984 35141 ft 535 kts 56°
2026-05-04 02:10 21.50894 -94.26209 35141 ft 535 kts 56°
2026-05-04 02:11 21.54886 -94.19464 35142 ft 535 kts 56°
2026-05-04 02:11 21.58879 -94.12708 35141 ft 535 kts 56°
2026-05-04 02:12 21.62865 -94.05957 35141 ft 535 kts 56°
2026-05-04 02:12 21.66829 -93.99254 35142 ft 535 kts 56°
2026-05-04 02:13 21.70786 -93.92545 35141 ft 535 kts 56°
2026-05-04 02:13 21.74792 -93.85721 35142 ft 535 kts 56°
2026-05-04 02:14 21.78706 -93.79044 35141 ft 535 kts 56°
2026-05-04 02:14 21.82666 -93.72285 35141 ft 536 kts 57°
2026-05-04 02:15 21.86387 -93.65240 35141 ft 546 kts 60°
2026-05-04 02:15 21.90000 -93.58062 35142 ft 553 kts 60°
2026-05-04 02:16 21.93721 -93.50755 35142 ft 559 kts 60°
2026-05-04 02:16 21.97494 -93.43368 35141 ft 562 kts 60°
2026-05-04 02:17 22.01283 -93.35992 35142 ft 561 kts 60°
2026-05-04 02:17 22.05068 -93.28620 35142 ft 561 kts 60°
2026-05-04 02:18 22.08824 -93.21275 35142 ft 561 kts 60°
2026-05-04 02:18 22.12594 -93.13885 35141 ft 561 kts 60°
2026-05-04 02:19 22.16338 -93.06535 35141 ft 561 kts 60°
2026-05-04 02:19 22.20098 -92.99141 35142 ft 561 kts 60°
2026-05-04 02:20 22.23859 -92.91736 35142 ft 561 kts 60°
2026-05-04 02:20 22.27595 -92.84369 35141 ft 561 kts 60°
2026-05-04 02:21 22.31357 -92.76976 35141 ft 561 kts 60°
2026-05-04 02:21 22.35107 -92.69558 35142 ft 561 kts 60°
2026-05-04 02:22 22.38799 -92.62230 35141 ft 561 kts 60°
2026-05-04 02:22 22.42446 -92.54985 35142 ft 561 kts 60°
2026-05-04 02:23 22.46184 -92.47487 35141 ft 561 kts 61°
2026-05-04 02:23 22.49803 -92.40055 35142 ft 561 kts 61°
2026-05-04 02:24 22.53450 -92.32584 35142 ft 561 kts 60°
2026-05-04 02:24 22.57109 -92.25130 35142 ft 561 kts 61°
2026-05-04 02:25 22.60750 -92.17641 35141 ft 561 kts 61°
2026-05-04 02:25 22.64373 -92.10174 35141 ft 562 kts 61°
2026-05-04 02:26 22.68019 -92.02656 35142 ft 562 kts 61°
2026-05-04 02:26 22.71731 -91.95204 35142 ft 561 kts 60°
2026-05-04 02:27 22.75418 -91.87773 35141 ft 561 kts 60°
2026-05-04 02:27 22.79125 -91.80280 35141 ft 561 kts 60°
2026-05-04 02:28 22.82813 -91.72841 35142 ft 561 kts 60°
2026-05-04 02:28 22.86468 -91.65422 35142 ft 561 kts 61°
2026-05-04 02:29 22.90139 -91.57941 35142 ft 561 kts 61°
2026-05-04 02:29 22.93822 -91.50430 35141 ft 561 kts 61°
2026-05-04 02:30 22.97469 -91.42976 35141 ft 561 kts 61°
2026-05-04 02:30 23.01122 -91.35475 35142 ft 561 kts 61°
2026-05-04 02:31 23.04758 -91.27995 35142 ft 561 kts 61°
2026-05-04 02:31 23.08397 -91.20497 35141 ft 561 kts 61°
2026-05-04 02:32 23.12049 -91.12969 35141 ft 561 kts 61°
2026-05-04 02:32 23.15694 -91.05518 35142 ft 561 kts 60°
2026-05-04 02:33 23.19356 -90.97990 35142 ft 561 kts 61°
2026-05-04 02:33 23.22956 -90.90530 35141 ft 562 kts 61°
2026-05-04 02:34 23.26588 -90.82989 35141 ft 562 kts 61°
2026-05-04 02:34 23.30209 -90.75467 35142 ft 562 kts 61°
2026-05-04 02:35 23.33859 -90.67935 35142 ft 562 kts 61°
2026-05-04 02:35 23.37467 -90.60429 35142 ft 562 kts 61°
2026-05-04 02:36 23.41079 -90.52891 35141 ft 562 kts 61°
2026-05-04 02:36 23.44697 -90.45334 35141 ft 562 kts 61°
2026-05-04 02:37 23.48314 -90.37780 35141 ft 562 kts 61°
2026-05-04 02:37 23.51897 -90.30286 35142 ft 562 kts 61°
2026-05-04 02:38 23.55514 -90.22704 35142 ft 562 kts 61°
2026-05-04 02:38 23.59107 -90.15163 35141 ft 562 kts 61°
2026-05-04 02:39 23.62743 -90.07596 35141 ft 562 kts 61°
2026-05-04 02:39 23.66336 -90.00071 35142 ft 562 kts 62°
2026-05-04 02:40 23.69906 -89.92542 35142 ft 562 kts 62°
2026-05-04 02:40 23.73496 -89.84959 35142 ft 562 kts 62°
2026-05-04 02:41 23.77103 -89.77333 35141 ft 562 kts 62°
2026-05-04 02:41 23.80676 -89.69803 35141 ft 562 kts 62°
2026-05-04 02:42 23.84247 -89.62235 35142 ft 562 kts 62°
2026-05-04 02:42 23.87811 -89.54646 35142 ft 562 kts 62°
2026-05-04 02:43 23.90737 -89.48408 35142 ft 562 kts 62°
2026-05-04 02:43 23.94327 -89.40749 35141 ft 562 kts 62°
2026-05-04 02:44 23.97904 -89.33185 35141 ft 562 kts 62°
2026-05-04 02:44 24.01449 -89.25620 35142 ft 562 kts 62°
2026-05-04 02:45 24.05027 -89.17959 35142 ft 562 kts 62°
2026-05-04 02:45 24.08584 -89.10338 35141 ft 562 kts 62°
2026-05-04 02:46 24.12126 -89.02733 35141 ft 562 kts 62°
2026-05-04 02:46 24.15661 -88.95112 35141 ft 562 kts 62°
2026-05-04 02:47 24.19177 -88.87512 35142 ft 562 kts 62°
2026-05-04 02:47 24.22690 -88.79910 35142 ft 562 kts 62°
2026-05-04 02:48 24.26236 -88.72240 35141 ft 562 kts 62°
2026-05-04 02:48 24.29777 -88.64625 35141 ft 562 kts 62°
2026-05-04 02:49 24.33296 -88.57003 35141 ft 562 kts 62°
2026-05-04 02:49 24.36840 -88.49338 35142 ft 562 kts 62°
2026-05-04 02:50 24.40359 -88.41692 35142 ft 562 kts 62°
2026-05-04 02:50 24.43868 -88.34024 35142 ft 562 kts 62°
2026-05-04 02:51 24.47361 -88.26379 35141 ft 562 kts 62°
2026-05-04 02:51 24.51187 -88.18941 35142 ft 561 kts 54°
2026-05-04 02:52 24.55903 -88.12076 35142 ft 559 kts 50°
2026-05-04 02:52 24.60718 -88.05443 35142 ft 559 kts 50°
2026-05-04 02:53 24.65546 -87.98661 35142 ft 559 kts 50°
2026-05-04 02:53 24.70296 -87.91946 35141 ft 559 kts 50°
2026-05-04 02:54 24.75109 -87.85174 35141 ft 559 kts 50°
2026-05-04 02:54 24.79875 -87.78437 35142 ft 559 kts 50°
2026-05-04 02:55 24.80485 -87.77572 35141 ft 559 kts 50°
2026-05-04 02:56 24.85089 -87.71041 35141 ft 559 kts 50°
2026-05-04 02:56 24.89839 -87.64324 35142 ft 559 kts 50°
2026-05-04 02:57 24.94618 -87.57516 35142 ft 559 kts 51°
2026-05-04 02:57 24.99349 -87.50762 35142 ft 559 kts 51°
2026-05-04 02:58 25.04108 -87.43965 35141 ft 559 kts 51°
2026-05-04 02:58 25.08847 -87.37188 35113 ft 555 kts 51°
2026-05-04 02:59 25.13552 -87.30448 35111 ft 554 kts 51°
2026-05-04 02:59 25.18239 -87.23718 35102 ft 553 kts 51°
2026-05-04 03:00 25.22912 -87.16996 35114 ft 553 kts 51°
2026-05-04 03:00 25.27616 -87.10241 35142 ft 559 kts 50°
2026-05-04 03:01 25.32360 -87.03454 35115 ft 556 kts 51°
2026-05-04 03:01 25.37039 -86.96725 35094 ft 550 kts 51°
2026-05-04 03:02 25.41735 -86.89953 35135 ft 555 kts 51°
2026-05-04 03:02 25.46453 -86.83137 35142 ft 560 kts 51°
2026-05-04 03:03 25.51165 -86.76320 35135 ft 558 kts 51°
2026-05-04 03:03 25.55889 -86.69476 35140 ft 558 kts 51°
2026-05-04 03:04 25.60582 -86.62666 35142 ft 559 kts 51°
2026-05-04 03:04 25.65315 -86.55787 35141 ft 559 kts 51°
2026-05-04 03:05 25.70023 -86.48936 35141 ft 559 kts 51°
2026-05-04 03:05 25.74699 -86.42121 35142 ft 559 kts 51°
2026-05-04 03:06 25.79405 -86.35253 35142 ft 559 kts 51°
2026-05-04 03:06 25.84119 -86.28361 35142 ft 559 kts 51°
2026-05-04 03:07 25.88809 -86.21529 35141 ft 559 kts 51°
2026-05-04 03:07 25.93502 -86.14642 35141 ft 559 kts 51°
2026-05-04 03:08 25.98221 -86.07696 35142 ft 559 kts 51°
2026-05-04 03:08 26.02870 -86.00851 35142 ft 559 kts 51°
2026-05-04 03:09 26.07180 -85.93576 35141 ft 560 kts 58°
2026-05-04 03:09 26.10981 -85.85982 35142 ft 561 kts 60°
2026-05-04 03:10 26.14745 -85.78434 35142 ft 561 kts 59°
2026-05-04 03:10 26.18577 -85.70824 35142 ft 561 kts 59°
2026-05-04 03:11 26.22412 -85.63245 35141 ft 561 kts 59°
2026-05-04 03:11 26.26269 -85.55693 35141 ft 561 kts 59°
2026-05-04 03:12 26.30089 -85.48162 35141 ft 561 kts 59°
2026-05-04 03:12 26.33941 -85.40543 35142 ft 561 kts 59°
2026-05-04 03:13 26.37754 -85.32986 35142 ft 561 kts 59°
2026-05-04 03:13 26.41396 -85.25751 35141 ft 561 kts 59°
2026-05-04 03:14 26.45229 -85.18125 35142 ft 561 kts 59°
2026-05-04 03:14 26.49031 -85.10549 35141 ft 561 kts 59°
2026-05-04 03:15 26.52856 -85.02911 35141 ft 561 kts 59°
2026-05-04 03:15 26.56657 -84.95310 35143 ft 561 kts 59°
2026-05-04 03:16 26.60452 -84.87707 35141 ft 561 kts 59°
2026-05-04 03:16 26.64260 -84.80065 35142 ft 561 kts 59°
2026-05-04 03:17 26.68043 -84.72459 35121 ft 563 kts 59°
2026-05-04 03:17 26.71879 -84.64735 35123 ft 570 kts 59°
2026-05-04 03:17 26.73767 -84.60927 35298 ft 567 kts 59°
2026-05-04 03:18 26.75655 -84.57118 36305 ft 548 kts 59°
2026-05-04 03:18 26.77505 -84.53380 36817 ft 540 kts 59°
2026-05-04 03:18 26.79319 -84.49713 37062 ft 538 kts 59°
2026-05-04 03:19 26.82715 -84.42840 37120 ft 538 kts 59°
2026-05-04 03:19 26.86216 -84.35742 37122 ft 538 kts 59°
2026-05-04 03:20 26.89802 -84.28459 37122 ft 538 kts 59°
2026-05-04 03:20 26.93430 -84.21078 37120 ft 540 kts 59°
2026-05-04 03:21 26.97027 -84.13750 37119 ft 540 kts 59°
2026-05-04 03:21 27.00644 -84.06367 37122 ft 537 kts 59°
2026-05-04 03:22 27.04250 -83.98994 37119 ft 540 kts 59°
2026-05-04 03:22 27.07877 -83.91567 37105 ft 543 kts 59°
2026-05-04 03:23 27.11505 -83.84122 37111 ft 547 kts 59°
2026-05-04 03:23 27.15141 -83.76650 37106 ft 553 kts 59°
2026-05-04 03:24 27.18860 -83.68992 37110 ft 552 kts 59°
2026-05-04 03:24 27.22477 -83.61532 37121 ft 542 kts 59°
2026-05-04 03:25 27.26056 -83.54140 37108 ft 541 kts 59°
2026-05-04 03:25 27.29677 -83.46643 37109 ft 547 kts 59°
2026-05-04 03:26 27.33316 -83.39099 37111 ft 545 kts 59°
2026-05-04 03:26 27.36925 -83.31604 37111 ft 545 kts 59°
2026-05-04 03:27 27.40510 -83.24145 37110 ft 547 kts 60°
2026-05-04 03:27 27.44128 -83.16604 37112 ft 546 kts 60°
2026-05-04 03:28 27.47724 -83.09094 37114 ft 544 kts 60°
2026-05-04 03:28 27.51316 -83.01582 37116 ft 544 kts 60°
2026-05-04 03:29 27.54884 -82.94104 37121 ft 541 kts 60°
2026-05-04 03:29 27.57676 -82.88244 37122 ft 538 kts 60°
2026-05-04 03:30 27.60831 -82.81613 37117 ft 541 kts 60°
2026-05-04 03:30 27.64381 -82.74139 37116 ft 544 kts 60°
2026-05-04 03:31 27.67924 -82.66668 37104 ft 550 kts 60°
2026-05-04 03:31 27.71536 -82.59035 37099 ft 554 kts 60°
2026-05-04 03:32 27.75186 -82.51310 37103 ft 552 kts 60°
2026-05-04 03:32 27.78726 -82.43802 37132 ft 536 kts 60°
2026-05-04 03:33 27.82230 -82.36357 37123 ft 540 kts 60°
2026-05-04 03:33 27.85788 -82.28832 37125 ft 545 kts 60°
2026-05-04 03:34 27.89350 -82.21235 37120 ft 552 kts 60°